sat.trackr.live / text

‹ back to catalog

DB GME UT (DB-GLOBE MI*)

NORAD 68459 · 2026-067AV

PAYLOAD ACTIVE UNKNOWN

§ Identity

Operator
Country
US
Launch date
2026-03-30
Launch site
AFWTR
Launch vehicle
Mass (kg)
RCS (m²)

External: N2YO · Heavens-Above · Gunter

§ Orbital elements

Epoch: 2026-09-19T07:52:54.236928Z

Period
94.84 min
Inclination
97.4638°
Eccentricity
0.0007806
Mean motion
15.18346658 rev/d
Perigee alt
505.5 km
Apogee alt
516.2 km
Semi-major
6,889.0 km
B*
1.8422e-4
RAAN
219.2943°
Arg perigee
95.6486°
Mean anomaly
264.5638°
Rev number
2,621

§ Raw data

DB GME UT (DB-GLOBE MI*)1 68459U 26067AV  26262.32840552  .00003718  00000+0  18422-3 0  99982 68459  97.4638 219.2943 0007806  95.6486 264.5638 15.18346658 26212

JSON: /api/v1/satellites/68459 · /tle

For live sub-satellite position, see the globe view (requires WebGL).

§ Visibility from observer

Set your observer location to see the next 7 days of passes ≥ 10°. The values pass through the URL so the page stays shareable.

No JS? Fill the form by hand. The geolocation button needs JavaScript.